Time,TemperatureF,DewpointF,PressureIn,WindDirection,WindDirectionDegrees,WindSpeedMPH,WindSpeedGustMPH,Humidity,HourlyPrecipIn,Conditions,Clouds,dailyrainin,SoftwareType,DateUTC
2013-06-17 06:17:00,57.1,57.1,29.80,South,179,0.0,0.0,100,0.00,,,0.00,Wunderground v.1.15,2013-06-17 10:17:00,
2013-06-17 06:18:00,57.1,57.1,29.80,South,179,0.0,0.0,100,0.00,,,0.00,Wunderground v.1.15,2013-06-17 10:18:00,
2013-06-17 06:19:00,57.2,57.2,29.81,South,179,0.0,0.0,100,0.00,,,0.00,Wunderground v.1.15,2013-06-17 10:19:00,
2013-06-17 06:24:00,57.7,57.7,29.80,South,179,0.0,0.0,100,0.00,,,0.00,Wunderground v.1.15,2013-06-17 10:24:00,
2013-06-17 06:26:00,57.9,57.9,29.80,South,179,0.0,0.0,100,0.00,,,0.00,Wunderground v.1.15,2013-06-17 10:26:00,
2013-06-17 06:29:00,58.3,58.3,29.81,South,179,0.0,1.0,100,0.00,,,0.00,Wunderground v.1.15,2013-06-17 10:29:00,
2013-06-17 06:34:00,58.6,58.6,29.81,SSW,209,0.0,1.0,100,0.00,,,0.00,Wunderground v.1.15,2013-06-17 10:34:00,
2013-06-17 06:39:00,59.0,59.0,29.81,SW,225,0.0,2.0,100,0.00,,,0.00,Wunderground v.1.15,2013-06-17 10:39:00,
2013-06-17 06:44:00,59.4,59.4,29.81,SW,232,0.0,2.0,100,0.00,,,0.00,Wunderground v.1.15,2013-06-17 10:44:00,
2013-06-17 06:50:00,60.0,59.7,29.81,SW,214,0.0,1.0,99,0.00,,,0.00,Wunderground v.1.15,2013-06-17 10:50:00,
2013-06-17 06:55:00,60.4,59.8,29.81,SW,229,1.0,1.0,98,0.00,,,0.00,Wunderground v.1.15,2013-06-17 10:55:00,
2013-06-17 07:00:00,60.8,59.9,29.81,SW,225,1.0,1.0,97,0.00,,,0.00,Wunderground v.1.15,2013-06-17 11:00:00,
2013-06-17 07:05:00,61.2,60.1,29.81,SSW,210,0.0,2.0,96,0.00,,,0.00,Wunderground v.1.15,2013-06-17 11:05:00,
2013-06-17 07:10:00,61.7,60.0,29.81,WNW,285,0.0,0.0,94,0.00,,,0.00,Wunderground v.1.15,2013-06-17 11:10:00,
2013-06-17 07:15:00,62.2,59.8,29.81,WSW,250,1.0,2.0,92,0.00,,,0.00,Wunderground v.1.15,2013-06-17 11:15:00,
2013-06-17 07:20:00,62.7,60.3,29.81,West,260,1.0,4.0,92,0.00,,,0.00,Wunderground v.1.15,2013-06-17 11:20:00,
2013-06-17 07:26:00,63.2,60.5,29.81,West,272,1.0,4.0,91,0.00,,,0.00,Wunderground v.1.15,2013-06-17 11:26:00,
2013-06-17 07:31:00,63.8,60.5,29.81,West,279,0.0,1.0,89,0.00,,,0.00,Wunderground v.1.15,2013-06-17 11:31:00,
2013-06-17 07:36:00,64.2,60.2,29.81,WNW,292,1.0,4.0,87,0.00,,,0.00,Wunderground v.1.15,2013-06-17 11:36:00,
2013-06-17 07:42:00,64.8,60.2,29.81,WSW,246,1.0,2.0,85,0.00,,,0.00,Wunderground v.1.15,2013-06-17 11:42:00,
2013-06-17 07:47:00,65.1,60.5,29.82,SSW,209,0.0,2.0,85,0.00,,,0.00,Wunderground v.1.15,2013-06-17 11:47:00,
2013-06-17 07:52:00,65.5,60.5,29.81,SW,229,1.0,1.0,84,0.00,,,0.00,Wunderground v.1.15,2013-06-17 11:52:00,
2013-06-17 07:57:00,66.0,60.3,29.81,SW,221,1.0,3.0,82,0.00,,,0.00,Wunderground v.1.15,2013-06-17 11:57:00,
2013-06-17 08:02:00,66.3,59.9,29.81,SW,232,1.0,3.0,80,0.00,,,0.00,Wunderground v.1.15,2013-06-17 12:02:00,
2013-06-17 08:07:00,66.6,60.6,29.82,SSW,210,1.0,3.0,81,0.00,,,0.00,Wunderground v.1.15,2013-06-17 12:07:00,
2013-06-17 08:12:00,67.0,60.6,29.82,WNW,285,1.0,1.0,80,0.00,,,0.00,Wunderground v.1.15,2013-06-17 12:12:00,
2013-06-17 08:18:00,67.6,60.9,29.82,WNW,303,1.0,4.0,79,0.00,,,0.00,Wunderground v.1.15,2013-06-17 12:18:00,
2013-06-17 08:23:00,68.1,60.6,29.82,WSW,237,1.0,2.0,77,0.00,,,0.00,Wunderground v.1.15,2013-06-17 12:23:00,
2013-06-17 08:29:00,68.4,60.5,29.82,SSW,207,1.0,3.0,76,0.00,,,0.00,Wunderground v.1.15,2013-06-17 12:29:00,
2013-06-17 08:34:00,68.4,60.5,29.82,SW,230,1.0,2.0,76,0.00,,,0.00,Wunderground v.1.15,2013-06-17 12:34:00,
2013-06-17 08:40:00,68.8,60.9,29.82,WNW,290,2.0,2.0,76,0.00,,,0.00,Wunderground v.1.15,2013-06-17 12:40:00,
2013-06-17 08:45:00,69.1,60.5,29.82,SW,234,2.0,3.0,74,0.00,,,0.00,Wunderground v.1.15,2013-06-17 12:45:00,
2013-06-17 08:51:00,69.3,61.0,29.82,West,281,2.0,6.0,75,0.00,,,0.00,Wunderground v.1.15,2013-06-17 12:51:00,
2013-06-17 08:57:00,69.6,61.3,29.82,West,262,2.0,6.0,75,0.00,,,0.00,Wunderground v.1.15,2013-06-17 12:57:00,
2013-06-17 09:02:00,70.0,61.7,29.82,SW,236,2.0,4.0,75,0.00,,,0.00,Wunderground v.1.15,2013-06-17 13:02:00,
2013-06-17 09:08:00,70.3,61.2,29.82,SSW,213,2.0,6.0,73,0.00,,,0.00,Wunderground v.1.15,2013-06-17 13:08:00,
2013-06-17 09:13:00,70.6,62.3,29.81,West,277,2.0,2.0,75,0.00,,,0.00,Wunderground v.1.15,2013-06-17 13:13:00,
2013-06-17 09:18:00,71.0,61.5,29.81,WNW,294,2.0,2.0,72,0.00,,,0.00,Wunderground v.1.15,2013-06-17 13:18:00,
2013-06-17 09:23:00,71.4,61.9,29.81,West,269,1.0,5.0,72,0.00,,,0.00,Wunderground v.1.15,2013-06-17 13:23:00,
2013-06-17 09:28:00,71.4,62.7,29.81,WSW,243,2.0,5.0,74,0.00,,,0.00,Wunderground v.1.15,2013-06-17 13:28:00,
2013-06-17 09:33:00,71.7,62.2,29.81,West,278,2.0,4.0,72,0.00,,,0.00,Wunderground v.1.15,2013-06-17 13:33:00,
2013-06-17 09:39:00,72.1,62.6,29.81,NW,314,3.0,4.0,72,0.00,,,0.00,Wunderground v.1.15,2013-06-17 13:39:00,
2013-06-17 09:44:00,72.4,62.9,29.80,West,265,2.0,4.0,72,0.00,,,0.00,Wunderground v.1.15,2013-06-17 13:44:00,
2013-06-17 09:49:00,72.7,62.3,29.80,SW,225,2.0,7.0,70,0.00,,,0.00,Wunderground v.1.15,2013-06-17 13:49:00,
2013-06-17 09:54:00,72.7,62.3,29.80,SW,232,3.0,6.0,70,0.00,,,0.00,Wunderground v.1.15,2013-06-17 13:54:00,
2013-06-17 09:59:00,72.9,62.5,29.80,WSW,252,2.0,6.0,70,0.00,,,0.00,Wunderground v.1.15,2013-06-17 13:59:00,
2013-06-17 10:04:00,73.0,62.6,29.80,SSW,209,3.0,5.0,70,0.00,,,0.00,Wunderground v.1.15,2013-06-17 14:04:00,
2013-06-17 10:09:00,73.3,62.5,29.80,WSW,254,3.0,7.0,69,0.00,,,0.00,Wunderground v.1.15,2013-06-17 14:09:00,
2013-06-17 10:15:00,73.9,62.7,29.80,West,273,2.0,4.0,68,0.00,,,0.00,Wunderground v.1.15,2013-06-17 14:15:00,
2013-06-17 10:21:00,74.1,62.4,29.80,West,276,2.0,4.0,67,0.00,,,0.00,Wunderground v.1.15,2013-06-17 14:21:00,
2013-06-17 10:26:00,74.3,62.6,29.80,SSW,192,3.0,6.0,67,0.00,,,0.00,Wunderground v.1.15,2013-06-17 14:26:00,
2013-06-17 10:31:00,74.6,62.9,29.80,SSW,208,3.0,3.0,67,0.00,,,0.00,Wunderground v.1.15,2013-06-17 14:31:00,
2013-06-17 10:36:00,74.8,62.7,29.80,SSW,198,2.0,5.0,66,0.00,,,0.00,Wunderground v.1.15,2013-06-17 14:36:00,
2013-06-17 10:41:00,75.4,63.7,29.79,WSW,248,2.0,2.0,67,0.00,,,0.00,Wunderground v.1.15,2013-06-17 14:41:00,
2013-06-17 10:46:00,76.0,63.8,29.79,SW,227,2.0,5.0,66,0.00,,,0.00,Wunderground v.1.15,2013-06-17 14:46:00,
2013-06-17 10:51:00,76.2,63.6,29.79,WSW,240,2.0,3.0,65,0.00,,,0.00,Wunderground v.1.15,2013-06-17 14:51:00,
2013-06-17 10:57:00,76.1,63.5,29.79,SSW,196,2.0,5.0,65,0.00,,,0.00,Wunderground v.1.15,2013-06-17 14:57:00,
2013-06-17 11:02:00,76.3,63.7,29.79,SW,221,3.0,3.0,65,0.00,,,0.00,Wunderground v.1.15,2013-06-17 15:02:00,
2013-06-17 11:07:00,76.6,63.5,29.79,SW,226,2.0,4.0,64,0.00,,,0.00,Wunderground v.1.15,2013-06-17 15:07:00,
2013-06-17 11:13:00,76.8,61.9,29.79,SW,220,3.0,6.0,60,0.00,,,0.00,Wunderground v.1.15,2013-06-17 15:13:00,
2013-06-17 11:18:00,77.2,62.2,29.79,SW,221,3.0,6.0,60,0.00,,,0.00,Wunderground v.1.15,2013-06-17 15:18:00,
2013-06-17 11:23:00,77.1,63.1,29.78,SW,232,3.0,6.0,62,0.00,,,0.00,Wunderground v.1.15,2013-06-17 15:23:00,
2013-06-17 11:28:00,77.0,63.4,29.78,SW,217,4.0,6.0,63,0.00,,,0.00,Wunderground v.1.15,2013-06-17 15:28:00,
2013-06-17 11:33:00,77.4,64.7,29.78,SSW,205,3.0,10.0,65,0.00,,,0.00,Wunderground v.1.15,2013-06-17 15:33:00,
2013-06-17 11:38:00,77.8,60.8,29.78,SSW,211,3.0,10.0,56,0.00,,,0.00,Wunderground v.1.15,2013-06-17 15:38:00,
2013-06-17 11:43:00,77.9,60.9,29.78,SW,230,3.0,5.0,56,0.00,,,0.00,Wunderground v.1.15,2013-06-17 15:43:00,
2013-06-17 11:48:00,77.5,63.9,29.78,SSW,196,4.0,8.0,63,0.00,,,0.00,Wunderground v.1.15,2013-06-17 15:48:00,
2013-06-17 11:53:00,77.0,65.6,29.78,SSW,204,5.0,7.0,68,0.00,,,0.00,Wunderground v.1.15,2013-06-17 15:53:00,
2013-06-17 11:58:00,76.9,64.7,29.78,SSW,200,4.0,10.0,66,0.00,,,0.00,Wunderground v.1.15,2013-06-17 15:58:00,
2013-06-17 12:04:00,76.6,64.0,29.78,SE,146,4.0,9.0,65,0.00,,,0.00,Wunderground v.1.15,2013-06-17 16:04:00,
2013-06-17 12:09:00,75.9,63.7,29.78,South,181,5.0,9.0,66,0.00,,,0.00,Wunderground v.1.15,2013-06-17 16:09:00,
2013-06-17 12:14:00,75.7,64.4,29.79,SSE,160,5.0,9.0,68,0.00,,,0.00,Wunderground v.1.15,2013-06-17 16:14:00,
2013-06-17 12:19:00,75.4,64.9,29.78,SSW,200,5.0,9.0,70,0.00,,,0.00,Wunderground v.1.15,2013-06-17 16:19:00,
2013-06-17 12:24:00,75.4,64.1,29.78,South,169,6.0,7.0,68,0.00,,,0.00,Wunderground v.1.15,2013-06-17 16:24:00,
2013-06-17 12:30:00,75.5,64.2,29.78,SSE,166,6.0,6.0,68,0.00,,,0.00,Wunderground v.1.15,2013-06-17 16:30:00,
2013-06-17 12:35:00,75.4,63.7,29.78,South,171,6.0,8.0,67,0.00,,,0.00,Wunderground v.1.15,2013-06-17 16:35:00,
2013-06-17 12:40:00,75.4,63.7,29.78,SW,222,5.0,9.0,67,0.00,,,0.00,Wunderground v.1.15,2013-06-17 16:40:00,
2013-06-17 12:45:00,75.6,63.4,29.78,South,169,6.0,9.0,66,0.00,,,0.00,Wunderground v.1.15,2013-06-17 16:45:00,
2013-06-17 12:51:00,75.7,63.5,29.78,SSW,205,6.0,11.0,66,0.00,,,0.00,Wunderground v.1.15,2013-06-17 16:51:00,
2013-06-17 12:56:00,75.5,64.2,29.77,SSE,165,7.0,11.0,68,0.00,,,0.00,Wunderground v.1.15,2013-06-17 16:56:00,
2013-06-17 13:01:00,76.0,64.7,29.77,South,169,5.0,6.0,68,0.00,,,0.00,Wunderground v.1.15,2013-06-17 17:01:00,
2013-06-17 13:06:00,76.4,63.8,29.77,SSW,196,4.0,6.0,65,0.00,,,0.00,Wunderground v.1.15,2013-06-17 17:06:00,
2013-06-17 13:12:00,76.2,63.6,29.77,SSW,200,5.0,6.0,65,0.00,,,0.00,Wunderground v.1.15,2013-06-17 17:12:00,
2013-06-17 13:17:00,76.7,63.2,29.77,SSW,201,5.0,9.0,63,0.00,,,0.00,Wunderground v.1.15,2013-06-17 17:17:00,
2013-06-17 13:22:00,77.1,63.5,29.77,South,190,4.0,10.0,63,0.00,,,0.00,Wunderground v.1.15,2013-06-17 17:22:00,
2013-06-17 13:27:00,77.2,63.6,29.77,South,169,5.0,10.0,63,0.00,,,0.00,Wunderground v.1.15,2013-06-17 17:27:00,
2013-06-17 13:32:00,77.6,63.5,29.77,SSW,203,5.0,5.0,62,0.00,,,0.00,Wunderground v.1.15,2013-06-17 17:32:00,
2013-06-17 13:37:00,77.9,64.3,29.77,SSE,164,5.0,5.0,63,0.00,,,0.00,Wunderground v.1.15,2013-06-17 17:37:00,
2013-06-17 13:43:00,78.0,62.0,29.77,South,180,5.0,7.0,58,0.00,,,0.00,Wunderground v.1.15,2013-06-17 17:43:00,
2013-06-17 13:48:00,77.9,61.9,29.77,SW,230,6.0,8.0,58,0.00,,,0.00,Wunderground v.1.15,2013-06-17 17:48:00,
2013-06-17 13:54:00,77.8,62.8,29.77,SSW,204,5.0,6.0,60,0.00,,,0.00,Wunderground v.1.15,2013-06-17 17:54:00,
2013-06-17 13:59:00,77.7,62.7,29.77,SSW,207,5.0,8.0,60,0.00,,,0.00,Wunderground v.1.15,2013-06-17 17:59:00,
2013-06-17 14:04:00,77.7,63.2,29.77,South,169,6.0,8.0,61,0.00,,,0.00,Wunderground v.1.15,2013-06-17 18:04:00,
2013-06-17 14:10:00,78.1,64.5,29.77,SSW,200,5.0,5.0,63,0.00,,,0.00,Wunderground v.1.15,2013-06-17 18:10:00,
2013-06-17 14:16:00,77.6,63.5,29.77,South,171,5.0,8.0,62,0.00,,,0.00,Wunderground v.1.15,2013-06-17 18:16:00,
2013-06-17 14:21:00,77.5,64.4,29.77,SSE,167,5.0,6.0,64,0.00,,,0.00,Wunderground v.1.15,2013-06-17 18:21:00,
2013-06-17 14:26:00,76.6,62.6,29.77,South,170,5.0,6.0,62,0.00,,,0.00,Wunderground v.1.15,2013-06-17 18:26:00,
2013-06-17 14:32:00,75.1,63.0,29.77,SW,214,5.0,5.0,66,0.00,,,0.00,Wunderground v.1.15,2013-06-17 18:32:00,
2013-06-17 14:37:00,74.4,62.3,29.77,WSW,250,5.0,6.0,66,0.00,,,0.00,Wunderground v.1.15,2013-06-17 18:37:00,
2013-06-17 14:42:00,74.3,62.6,29.77,South,182,4.0,4.0,67,0.00,,,0.00,Wunderground v.1.15,2013-06-17 18:42:00,
2013-06-17 14:47:00,74.4,62.3,29.77,SSW,204,3.0,6.0,66,0.00,,,0.00,Wunderground v.1.15,2013-06-17 18:47:00,
2013-06-17 14:52:00,75.3,63.6,29.77,SSE,160,5.0,7.0,67,0.00,,,0.00,Wunderground v.1.15,2013-06-17 18:52:00,
2013-06-17 14:58:00,75.3,64.0,29.77,South,169,6.0,9.0,68,0.00,,,0.00,Wunderground v.1.15,2013-06-17 18:58:00,
2013-06-17 15:03:00,74.8,63.5,29.77,SSW,206,5.0,5.0,68,0.00,,,0.00,Wunderground v.1.15,2013-06-17 19:03:00,
2013-06-17 15:08:00,74.4,63.1,29.77,SSW,194,5.0,8.0,68,0.00,,,0.00,Wunderground v.1.15,2013-06-17 19:08:00,
2013-06-17 15:14:00,74.1,63.7,29.77,South,181,5.0,6.0,70,0.00,,,0.00,Wunderground v.1.15,2013-06-17 19:14:00,
2013-06-17 15:20:00,74.2,63.4,29.76,South,182,4.0,5.0,69,0.00,,,0.00,Wunderground v.1.15,2013-06-17 19:20:00,
2013-06-17 15:25:00,74.2,63.0,29.77,South,182,4.0,5.0,68,0.00,,,0.00,Wunderground v.1.15,2013-06-17 19:25:00,
2013-06-17 15:31:00,73.7,62.9,29.77,South,171,5.0,6.0,69,0.00,,,0.00,Wunderground v.1.15,2013-06-17 19:31:00,
2013-06-17 15:36:00,73.3,62.9,29.76,SSW,202,5.0,7.0,70,0.00,,,0.00,Wunderground v.1.15,2013-06-17 19:36:00,
2013-06-17 15:41:00,72.9,62.9,29.77,SW,221,4.0,4.0,71,0.00,,,0.00,Wunderground v.1.15,2013-06-17 19:41:00,
2013-06-17 15:47:00,72.4,63.3,29.81,NNW,334,2.0,5.0,73,0.00,,,0.00,Wunderground v.1.15,2013-06-17 19:47:00,
2013-06-17 15:52:00,70.1,63.3,29.84,NNE,19,5.0,8.0,79,4.24,,,0.10,Wunderground v.1.15,2013-06-17 19:52:00,
2013-06-17 15:58:00,65.0,61.7,29.80,NNE,12,7.0,10.0,89,0.55,,,0.29,Wunderground v.1.15,2013-06-17 19:58:00,
2013-06-17 16:04:00,64.4,61.7,29.81,NE,50,7.0,10.0,91,0.08,,,0.29,Wunderground v.1.15,2013-06-17 20:04:00,
2013-06-17 16:10:00,64.5,62.4,29.80,NE,53,5.0,5.0,93,0.08,,,0.30,Wunderground v.1.15,2013-06-17 20:10:00,
2013-06-17 16:16:00,64.7,62.9,29.80,NE,41,4.0,7.0,94,0.05,,,0.30,Wunderground v.1.15,2013-06-17 20:16:00,
2013-06-17 16:22:00,64.9,62.8,29.80,ENE,65,3.0,3.0,93,0.00,,,0.30,Wunderground v.1.15,2013-06-17 20:22:00,
2013-06-17 16:27:00,65.1,63.3,29.80,ENE,65,1.0,3.0,94,0.00,,,0.30,Wunderground v.1.15,2013-06-17 20:27:00,
2013-06-17 16:32:00,65.2,63.4,29.80,ENE,65,0.0,1.0,94,0.00,,,0.30,Wunderground v.1.15,2013-06-17 20:32:00,
2013-06-17 16:38:00,65.2,63.4,29.81,ENE,65,0.0,1.0,94,0.00,,,0.30,Wunderground v.1.15,2013-06-17 20:38:00,
2013-06-17 16:43:00,65.4,63.6,29.80,ENE,65,0.0,1.0,94,0.00,,,0.30,Wunderground v.1.15,2013-06-17 20:43:00,
2013-06-17 16:49:00,65.6,63.8,29.80,East,79,0.0,2.0,94,0.00,,,0.30,Wunderground v.1.15,2013-06-17 20:49:00,
2013-06-17 16:54:00,65.8,64.0,29.80,East,79,1.0,1.0,94,0.00,,,0.30,Wunderground v.1.15,2013-06-17 20:54:00,
2013-06-17 16:59:00,65.8,64.0,29.81,East,83,0.0,1.0,94,0.00,,,0.30,Wunderground v.1.15,2013-06-17 20:59:00,
2013-06-17 17:04:00,65.9,64.4,29.81,East,83,0.0,0.0,95,0.00,,,0.30,Wunderground v.1.15,2013-06-17 21:04:00,
2013-06-17 17:09:00,66.0,64.2,29.81,East,83,0.0,0.0,94,0.00,,,0.30,Wunderground v.1.15,2013-06-17 21:09:00,
2013-06-17 17:14:00,66.1,64.3,29.81,East,84,0.0,1.0,94,0.00,,,0.30,Wunderground v.1.15,2013-06-17 21:14:00,
2013-06-17 17:19:00,65.9,63.8,29.81,East,84,0.0,1.0,93,0.00,,,0.30,Wunderground v.1.15,2013-06-17 21:19:00,
2013-06-17 17:25:00,65.9,63.8,29.81,East,84,0.0,1.0,93,0.00,,,0.30,Wunderground v.1.15,2013-06-17 21:25:00,
2013-06-17 17:30:00,65.8,63.7,29.81,East,86,0.0,0.0,93,0.00,,,0.30,Wunderground v.1.15,2013-06-17 21:30:00,
2013-06-17 17:35:00,66.0,64.2,29.81,East,96,0.0,1.0,94,0.00,,,0.30,Wunderground v.1.15,2013-06-17 21:35:00,
2013-06-17 17:41:00,66.2,64.7,29.81,SE,136,0.0,2.0,95,0.00,,,0.30,Wunderground v.1.15,2013-06-17 21:41:00,
2013-06-17 17:46:00,66.1,64.3,29.80,SSE,148,2.0,3.0,94,0.00,,,0.30,Wunderground v.1.15,2013-06-17 21:46:00,
2013-06-17 17:52:00,66.1,64.3,29.80,SE,140,2.0,3.0,94,0.00,,,0.30,Wunderground v.1.15,2013-06-17 21:52:00,
2013-06-17 17:57:00,66.1,64.3,29.80,South,176,2.0,4.0,94,0.00,,,0.30,Wunderground v.1.15,2013-06-17 21:57:00,
2013-06-17 18:02:00,66.2,64.4,29.80,South,169,2.0,2.0,94,0.00,,,0.30,Wunderground v.1.15,2013-06-17 22:02:00,
2013-06-17 18:07:00,66.4,64.9,29.80,South,169,1.0,2.0,95,0.00,,,0.30,Wunderground v.1.15,2013-06-17 22:07:00,
2013-06-17 18:13:00,66.3,64.5,29.80,South,169,0.0,0.0,94,0.00,,,0.30,Wunderground v.1.15,2013-06-17 22:13:00,
2013-06-17 18:19:00,66.3,64.2,29.80,South,169,0.0,0.0,93,0.00,,,0.30,Wunderground v.1.15,2013-06-17 22:19:00,
2013-06-17 18:24:00,66.5,64.4,29.80,South,169,0.0,0.0,93,0.00,,,0.30,Wunderground v.1.15,2013-06-17 22:24:00,
2013-06-17 18:29:00,66.6,64.5,29.81,South,169,0.0,0.0,93,0.00,,,0.30,Wunderground v.1.15,2013-06-17 22:29:00,
2013-06-17 18:34:00,66.6,64.5,29.81,South,169,0.0,0.0,93,0.00,,,0.30,Wunderground v.1.15,2013-06-17 22:34:00,
2013-06-17 18:39:00,66.8,64.7,29.81,South,169,0.0,0.0,93,0.00,,,0.30,Wunderground v.1.15,2013-06-17 22:39:00,
2013-06-17 18:44:00,67.0,64.9,29.81,South,169,0.0,1.0,93,0.00,,,0.30,Wunderground v.1.15,2013-06-17 22:44:00,
2013-06-17 18:49:00,67.1,65.0,29.81,South,169,0.0,1.0,93,0.00,,,0.30,Wunderground v.1.15,2013-06-17 22:49:00,
2013-06-17 18:55:00,67.5,65.4,29.82,South,169,0.0,0.0,93,0.00,,,0.30,Wunderground v.1.15,2013-06-17 22:55:00,
2013-06-17 19:00:00,67.6,65.5,29.82,SSE,159,0.0,1.0,93,0.00,,,0.30,Wunderground v.1.15,2013-06-17 23:00:00,
2013-06-17 19:05:00,67.4,65.0,29.82,SSE,155,1.0,2.0,92,0.00,,,0.30,Wunderground v.1.15,2013-06-17 23:05:00,
2013-06-17 19:10:00,67.3,65.2,29.82,SSE,155,1.0,1.0,93,0.00,,,0.30,Wunderground v.1.15,2013-06-17 23:10:00,
2013-06-17 19:15:00,67.3,65.2,29.82,SSE,155,1.0,1.0,93,0.00,,,0.30,Wunderground v.1.15,2013-06-17 23:15:00,
2013-06-17 19:21:00,67.5,65.4,29.82,SSE,155,0.0,0.0,93,0.00,,,0.30,Wunderground v.1.15,2013-06-17 23:21:00,
2013-06-17 19:26:00,67.6,65.5,29.82,SSE,155,0.0,2.0,93,0.00,,,0.30,Wunderground v.1.15,2013-06-17 23:26:00,
2013-06-17 19:32:00,67.2,65.1,29.82,SSE,155,0.0,0.0,93,0.00,,,0.30,Wunderground v.1.15,2013-06-17 23:32:00,
2013-06-17 19:37:00,66.7,64.3,29.82,SSE,149,1.0,1.0,92,0.00,,,0.30,Wunderground v.1.15,2013-06-17 23:37:00,
2013-06-17 19:42:00,66.3,63.9,29.83,SSE,149,1.0,2.0,92,0.00,,,0.30,Wunderground v.1.15,2013-06-17 23:42:00,
2013-06-17 19:47:00,66.1,64.0,29.83,SSE,149,1.0,2.0,93,0.00,,,0.30,Wunderground v.1.15,2013-06-17 23:47:00,
2013-06-17 19:53:00,65.9,63.8,29.83,SSE,149,0.0,0.0,93,0.00,,,0.30,Wunderground v.1.15,2013-06-17 23:53:00,
2013-06-17 19:58:00,65.7,63.9,29.83,SE,146,0.0,0.0,94,0.00,,,0.30,Wunderground v.1.15,2013-06-17 23:58:00,
2013-06-17 20:03:00,65.6,64.1,29.83,SE,146,0.0,0.0,95,0.00,,,0.30,Wunderground v.1.15,2013-06-18 00:03:00,
2013-06-17 20:08:00,65.5,64.0,29.83,SE,146,0.0,0.0,95,0.00,,,0.30,Wunderground v.1.15,2013-06-18 00:08:00,
2013-06-17 20:14:00,65.4,63.9,29.83,SE,146,0.0,0.0,95,0.00,,,0.30,Wunderground v.1.15,2013-06-18 00:14:00,
2013-06-17 20:19:00,65.3,64.1,29.83,SE,146,0.0,0.0,96,0.00,,,0.30,Wunderground v.1.15,2013-06-18 00:19:00,
2013-06-17 20:24:00,65.1,63.9,29.84,SE,146,0.0,0.0,96,0.00,,,0.30,Wunderground v.1.15,2013-06-18 00:24:00,
2013-06-17 20:30:00,65.0,64.1,29.84,SE,146,0.0,0.0,97,0.00,,,0.30,Wunderground v.1.15,2013-06-18 00:30:00,
2013-06-17 20:35:00,64.6,63.7,29.84,SE,146,0.0,0.0,97,0.00,,,0.30,Wunderground v.1.15,2013-06-18 00:35:00,
2013-06-17 20:40:00,64.4,63.5,29.85,SE,146,0.0,0.0,97,0.00,,,0.30,Wunderground v.1.15,2013-06-18 00:40:00,
2013-06-17 20:45:00,64.2,63.3,29.85,SE,146,0.0,0.0,97,0.00,,,0.30,Wunderground v.1.15,2013-06-18 00:45:00,
2013-06-17 20:50:00,64.2,63.3,29.85,SE,146,0.0,0.0,97,0.00,,,0.30,Wunderground v.1.15,2013-06-18 00:50:00,
2013-06-17 20:55:00,64.3,63.7,29.85,SE,146,0.0,0.0,98,0.00,,,0.30,Wunderground v.1.15,2013-06-18 00:55:00,
2013-06-17 21:01:00,64.3,63.7,29.85,SE,146,0.0,0.0,98,0.00,,,0.30,Wunderground v.1.15,2013-06-18 01:01:00,
2013-06-17 21:06:00,64.1,63.5,29.85,SE,146,0.0,0.0,98,0.00,,,0.30,Wunderground v.1.15,2013-06-18 01:06:00,
2013-06-17 21:11:00,64.1,63.5,29.86,SE,146,0.0,0.0,98,0.00,,,0.30,Wunderground v.1.15,2013-06-18 01:11:00,
2013-06-17 21:16:00,64.1,63.5,29.86,SE,146,0.0,0.0,98,0.00,,,0.30,Wunderground v.1.15,2013-06-18 01:16:00,
2013-06-17 21:22:00,64.0,63.4,29.86,SE,146,0.0,0.0,98,0.00,,,0.30,Wunderground v.1.15,2013-06-18 01:22:00,
2013-06-17 21:27:00,63.8,63.2,29.86,SE,146,0.0,0.0,98,0.00,,,0.30,Wunderground v.1.15,2013-06-18 01:27:00,
2013-06-17 21:33:00,63.7,63.1,29.86,SE,146,0.0,0.0,98,0.00,,,0.30,Wunderground v.1.15,2013-06-18 01:33:00,
2013-06-17 21:38:00,63.7,63.1,29.87,SE,146,0.0,0.0,98,0.00,,,0.30,Wunderground v.1.15,2013-06-18 01:38:00,
2013-06-17 21:44:00,63.7,63.4,29.87,South,173,0.0,2.0,99,0.00,,,0.30,Wunderground v.1.15,2013-06-18 01:44:00,
2013-06-17 21:50:00,63.4,62.8,29.87,SSW,210,1.0,4.0,98,0.00,,,0.30,Wunderground v.1.15,2013-06-18 01:50:00,
2013-06-17 21:55:00,62.8,61.9,29.87,SSW,207,1.0,4.0,97,0.00,,,0.30,Wunderground v.1.15,2013-06-18 01:55:00,
2013-06-17 22:00:00,62.4,61.2,29.87,South,178,2.0,2.0,96,0.00,,,0.30,Wunderground v.1.15,2013-06-18 02:00:00,
2013-06-17 22:06:00,61.9,60.7,29.87,SSW,196,2.0,2.0,96,0.00,,,0.30,Wunderground v.1.15,2013-06-18 02:06:00,
2013-06-17 22:11:00,61.7,60.5,29.87,SSW,196,1.0,2.0,96,0.00,,,0.30,Wunderground v.1.15,2013-06-18 02:11:00,